| time (UTC) | temp F | wind direction | speed MPH | gust MPH | rain 1hr in | rain 24hr in | rain mn in | humidity % | barometer mb |
| 20260508234102 | 75 | 112 | 2.0 | 2.0 | 0.00 | 0.00 | 0.00 | 86 | 1007.6 |
| 20260508233601 | 76 | 107 | 1.0 | 2.0 | 0.00 | 0.00 | 0.00 | 86 | 1007.8 |
| 20260508233058 | 76 | 96 | 1.0 | 1.0 | 0.00 | 0.00 | 0.00 | 86 | 1007.7 |
| 20260508232555 | 76 | 154 | 2.0 | 3.0 | 0.00 | 0.00 | 0.00 | 86 | 1007.9 |
| 20260508232052 | 76 | 82 | 2.0 | 2.0 | 0.00 | 0.00 | 0.00 | 84 | 1007.6 |
| 20260508231550 | 77 | 142 | 2.0 | 3.0 | 0.00 | 0.00 | 0.00 | 84 | 1007.8 |
| 20260508231046 | 77 | 90 | 1.0 | 1.0 | 0.00 | 0.00 | 0.00 | 84 | 1007.5 |
| 20260508230543 | 76 | 137 | 5.0 | 6.0 | 0.00 | 0.00 | 0.00 | 85 | 1007.8 |
| 20260508230040 | 76 | 63 | 1.0 | 2.0 | 0.00 | 0.00 | 0.00 | 85 | 1007.7 |
| 20260508225537 | 76 | 155 | 4.0 | 6.0 | 0.00 | 0.00 | 0.00 | 84 | 1007.7 |
| 20260508225033 | 76 | 117 | 2.0 | 3.0 | 0.00 | 0.00 | 0.00 | 85 | 1007.8 |
| 20260508224532 | 76 | 159 | 2.0 | 3.0 | 0.00 | 0.00 | 0.00 | 85 | 1008.1 |
| 20260508224029 | 75 | 151 | 2.0 | 2.0 | 0.00 | 0.00 | 0.00 | 85 | 1007.8 |
| 20260508223527 | 75 | 174 | 4.0 | 6.0 | 0.00 | 0.00 | 0.00 | 84 | 1007.9 |
| 20260508223023 | 75 | 106 | 1.0 | 2.0 | 0.00 | 0.00 | 0.00 | 85 | 1008.0 |
| 20260508222521 | 75 | 93 | 2.0 | 2.0 | 0.00 | 0.00 | 0.00 | 85 | 1008.0 |
| 20260508222018 | 75 | 136 | 3.0 | 5.0 | 0.00 | 0.00 | 0.00 | 85 | 1007.8 |
| 20260508221514 | 74 | 87 | 0.0 | 1.0 | 0.00 | 0.00 | 0.00 | 85 | 1007.9 |
| 20260508221010 | 75 | 141 | 3.0 | 3.0 | 0.00 | 0.00 | 0.00 | 85 | 1008.0 |
| 20260508220507 | 75 | 102 | 2.0 | 2.0 | 0.00 | 0.00 | 0.00 | 85 | 1008.3 |
| 20260508220003 | 75 | 139 | 4.0 | 5.0 | 0.00 | 0.00 | 0.00 | 85 | 1008.0 |
| 20260508215500 | 75 | 161 | 2.0 | 2.0 | 0.00 | 0.00 | 0.00 | 85 | 1008.0 |
| 20260508214956 | 75 | 107 | 1.0 | 1.0 | 0.00 | 0.00 | 0.00 | 86 | 1008.1 |
| 20260508214454 | 75 | 135 | 3.0 | 3.0 | 0.00 | 0.00 | 0.00 | 86 | 1008.4 |
| 20260508213950 | 75 | 74 | 2.0 | 3.0 | 0.00 | 0.00 | 0.00 | 85 | 1008.2 |
| 20260508213448 | 75 | 155 | 3.0 | 3.0 | 0.00 | 0.00 | 0.00 | 85 | 1008.3 |
| 20260508212942 | 75 | 98 | 2.0 | 2.0 | 0.00 | 0.00 | 0.00 | 85 | 1008.7 |
| 20260508212440 | 75 | 153 | 5.0 | 6.0 | 0.00 | 0.00 | 0.00 | 85 | 1008.2 |
| 20260508211935 | 75 | 113 | 2.0 | 3.0 | 0.00 | 0.00 | 0.00 | 85 | 1008.4 |
| 20260508211431 | 75 | 133 | 2.0 | 2.0 | 0.00 | 0.00 | 0.00 | 85 | 1008.4 |
| 20260508210929 | 75 | 168 | 3.0 | 3.0 | 0.00 | 0.00 | 0.00 | 85 | 1008.9 |
| 20260508210425 | 75 | 105 | 2.0 | 2.0 | 0.00 | 0.00 | 0.00 | 85 | 1008.8 |
| 20260508205922 | 75 | 144 | 5.0 | 6.0 | 0.00 | 0.00 | 0.00 | 85 | 1008.6 |
| 20260508205419 | 75 | 136 | 4.0 | 6.0 | 0.00 | 0.00 | 0.00 | 84 | 1008.7 |
| 20260508204915 | 75 | 84 | 1.0 | 1.0 | 0.00 | 0.00 | 0.00 | 84 | 1008.9 |
| 20260508204413 | 75 | 143 | 3.0 | 5.0 | 0.00 | 0.00 | 0.00 | 83 | 1008.7 |
| 20260508203908 | 75 | 141 | 2.0 | 3.0 | 0.00 | 0.00 | 0.00 | 83 | 1008.8 |
| 20260508203404 | 75 | 106 | 3.0 | 3.0 | 0.00 | 0.00 | 0.00 | 84 | 1008.9 |
| 20260508202900 | 75 | 130 | 3.0 | 3.0 | 0.00 | 0.00 | 0.00 | 84 | 1009.0 |
| 20260508202357 | 75 | 151 | 3.0 | 5.0 | 0.00 | 0.00 | 0.00 | 83 | 1008.9 |
| 20260508201855 | 76 | 145 | 3.0 | 3.0 | 0.00 | 0.00 | 0.00 | 83 | 1009.2 |
| 20260508201351 | 75 | 135 | 3.0 | 3.0 | 0.00 | 0.00 | 0.00 | 83 | 1009.1 |
| 20260508200848 | 76 | 145 | 4.0 | 5.0 | 0.00 | 0.00 | 0.00 | 82 | 1009.1 |
| 20260508200345 | 76 | 93 | 0.0 | 1.0 | 0.00 | 0.00 | 0.00 | 83 | 1009.2 |
| 20260508195840 | 75 | 66 | 1.0 | 1.0 | 0.00 | 0.00 | 0.00 | 84 | 1009.3 |
| 20260508195337 | 74 | 103 | 3.0 | 3.0 | 0.00 | 0.00 | 0.00 | 84 | 1009.6 |
| 20260508194833 | 73 | 111 | 2.0 | 2.0 | 0.00 | 0.00 | 0.00 | 86 | 1009.4 |
| 20260508194331 | 73 | 96 | 2.0 | 2.0 | 0.00 | 0.00 | 0.00 | 86 | 1009.3 |
| 20260508193827 | 73 | 71 | 2.0 | 3.0 | 0.00 | 0.00 | 0.00 | 86 | 1009.8 |
| 20260508193324 | 73 | 127 | 3.0 | 3.0 | 0.00 | 0.00 | 0.00 | 86 | 1009.3 |
| 20260508192820 | 73 | 128 | 2.0 | 3.0 | 0.00 | 0.00 | 0.00 | 86 | 1009.5 |
| 20260508192318 | 73 | 139 | 2.0 | 2.0 | 0.00 | 0.00 | 0.00 | 86 | 1009.5 |
| 20260508191815 | 73 | 99 | 2.0 | 2.0 | 0.00 | 0.00 | 0.00 | 85 | 1009.4 |
| 20260508191312 | 72 | 80 | 2.0 | 3.0 | 0.00 | 0.00 | 0.00 | 86 | 1009.8 |
| 20260508190809 | 72 | 147 | 3.0 | 5.0 | 0.00 | 0.00 | 0.00 | 85 | 1009.7 |
| 20260508190306 | 73 | 131 | 3.0 | 3.0 | 0.00 | 0.00 | 0.00 | 85 | 1009.7 |
| 20260508185802 | 72 | 138 | 3.0 | 6.0 | 0.00 | 0.00 | 0.00 | 86 | 1009.6 |
| 20260508185259 | 72 | 63 | 3.0 | 5.0 | 0.00 | 0.00 | 0.00 | 86 | 1010.1 |
| 20260508184756 | 72 | 64 | 1.0 | 2.0 | 0.00 | 0.00 | 0.00 | 86 | 1010.0 |
| 20260508184254 | 71 | 45 | 1.0 | 1.0 | 0.00 | 0.00 | 0.00 | 88 | 1010.1 |
| 20260508183750 | 71 | 146 | 4.0 | 5.0 | 0.00 | 0.00 | 0.00 | 87 | 1010.0 |
| 20260508183247 | 71 | 121 | 2.0 | 2.0 | 0.00 | 0.00 | 0.00 | 88 | 1010.3 |
| 20260508182743 | 70 | 118 | 2.0 | 2.0 | 0.00 | 0.00 | 0.00 | 88 | 1010.4 |
| 20260508182240 | 71 | 149 | 3.0 | 3.0 | 0.00 | 0.00 | 0.00 | 88 | 1010.5 |
| 20260508181735 | 71 | 124 | 3.0 | 5.0 | 0.00 | 0.00 | 0.00 | 87 | 1010.4 |
| 20260508181233 | 71 | 117 | 1.0 | 2.0 | 0.00 | 0.00 | 0.00 | 86 | 1010.7 |
| 20260508180729 | 71 | 75 | 1.0 | 1.0 | 0.00 | 0.00 | 0.00 | 86 | 1010.8 |
| 20260508180226 | 71 | 101 | 1.0 | 1.0 | 0.00 | 0.00 | 0.00 | 86 | 1010.6 |
| 20260508175722 | 0 | 0.0 | 0.0 | 0.00 | 0.00 | 0.00 | 1010.7 | ||
| 20260508175219 | 70 | 91 | 1.0 | 1.0 | 0.00 | 0.00 | 0.00 | 87 | 1010.7 |
| 20260508174717 | 70 | 91 | 1.0 | 1.0 | 0.00 | 0.00 | 0.00 | 87 | 1010.9 |
| 20260508174215 | 70 | 114 | 2.0 | 2.0 | 0.00 | 0.00 | 0.00 | 86 | 1010.9 |
| 20260508173710 | 71 | 73 | 2.0 | 3.0 | 0.00 | 0.00 | 0.00 | 85 | 1010.9 |
| 20260508173206 | 71 | 115 | 3.0 | 3.0 | 0.00 | 0.00 | 0.00 | 85 | 1010.8 |
| 20260508172704 | 0 | 0.0 | 0.0 | 0.00 | 0.00 | 0.00 | 1010.9 | ||
| 20260508172200 | 0 | 0.0 | 0.0 | 0.00 | 0.00 | 0.00 | 1010.8 | ||
| 20260508171657 | 71 | 137 | 3.0 | 3.0 | 0.00 | 0.00 | 0.00 | 85 | 1010.9 |
| 20260508171153 | 71 | 137 | 3.0 | 3.0 | 0.00 | 0.00 | 0.00 | 85 | 1010.9 |
| 20260508170650 | 70 | 63 | 0.0 | 1.0 | 0.00 | 0.00 | 0.00 | 85 | 1011.0 |
| 20260508170148 | 70 | 39 | 0.0 | 0.0 | 0.00 | 0.00 | 0.00 | 85 | 1010.9 |
| 20260508165645 | 70 | 60 | 0.0 | 0.0 | 0.00 | 0.00 | 0.00 | 86 | 1010.8 |
| 20260508165142 | 70 | 61 | 0.0 | 0.0 | 0.00 | 0.00 | 0.00 | 86 | 1011.0 |
| 20260508164638 | 70 | 49 | 1.0 | 1.0 | 0.00 | 0.00 | 0.00 | 85 | 1011.0 |
| 20260508164135 | 69 | 48 | 0.0 | 0.0 | 0.00 | 0.00 | 0.00 | 87 | 1011.1 |
| 20260508163633 | 68 | 57 | 0.0 | 0.0 | 0.00 | 0.00 | 0.00 | 88 | 1011.0 |
| 20260508163130 | 68 | 26 | 0.0 | 1.0 | 0.00 | 0.00 | 0.00 | 89 | 1011.3 |
| 20260508162626 | 66 | 41 | 0.0 | 0.0 | 0.00 | 0.00 | 0.00 | 90 | 1011.4 |
| 20260508162123 | 66 | 64 | 0.0 | 1.0 | 0.00 | 0.00 | 0.00 | 90 | 1011.4 |
| 20260508161620 | 66 | 51 | 0.0 | 1.0 | 0.00 | 0.00 | 0.00 | 91 | 1011.3 |
| 20260508161118 | 66 | 23 | 1.0 | 1.0 | 0.00 | 0.00 | 0.00 | 91 | 1011.5 |
| 20260508160616 | 65 | 63 | 0.0 | 0.0 | 0.00 | 0.00 | 0.00 | 91 | 1011.6 |
| 20260508160113 | 65 | 46 | 0.0 | 0.0 | 0.00 | 0.00 | 0.00 | 92 | 1011.6 |
| 20260508155610 | 65 | 63 | 0.0 | 1.0 | 0.00 | 0.00 | 0.00 | 92 | 1011.5 |
| 20260508155107 | 65 | 55 | 0.0 | 0.0 | 0.00 | 0.00 | 0.00 | 93 | 1011.8 |
| 20260508154603 | 64 | 58 | 0.0 | 1.0 | 0.00 | 0.00 | 0.00 | 94 | 1011.7 |
| 20260508154101 | 64 | 38 | 1.0 | 1.0 | 0.00 | 0.00 | 0.00 | 94 | 1011.9 |
| 20260508153557 | 63 | 63 | 2.0 | 3.0 | 0.00 | 0.00 | 0.00 | 94 | 1012.0 |
| 20260508153054 | 63 | 31 | 1.0 | 2.0 | 0.00 | 0.00 | 0.00 | 95 | 1012.2 |
| 20260508152551 | 63 | 21 | 1.0 | 1.0 | 0.00 | 0.00 | 0.00 | 95 | 1012.1 |
| 20260508152046 | 62 | 43 | 0.0 | 0.0 | 0.00 | 0.00 | 0.00 | 95 | 1012.1 |
| 20260508151543 | 63 | 52 | 1.0 | 2.0 | 0.00 | 0.00 | 0.00 | 95 | 1012.2 |
| 20260508151040 | 62 | 51 | 1.0 | 1.0 | 0.00 | 0.00 | 0.00 | 96 | 1012.1 |
| 20260508150537 | 63 | 29 | 1.0 | 1.0 | 0.00 | 0.00 | 0.00 | 96 | 1012.4 |
| 20260508150033 | 62 | 34 | 0.0 | 0.0 | 0.00 | 0.00 | 0.00 | 96 | 1012.3 |
| 20260508145530 | 62 | 49 | 0.0 | 0.0 | 0.00 | 0.00 | 0.00 | 96 | 1012.4 |
| 20260508145026 | 62 | 53 | 0.0 | 0.0 | 0.00 | 0.00 | 0.00 | 96 | 1012.3 |
| 20260508144523 | 61 | 47 | 0.0 | 0.0 | 0.00 | 0.00 | 0.00 | 96 | 1012.4 |
| 20260508144021 | 61 | 58 | 0.0 | 0.0 | 0.00 | 0.00 | 0.00 | 96 | 1012.1 |
| 20260508143513 | 61 | 50 | 0.0 | 0.0 | 0.00 | 0.00 | 0.00 | 96 | 1012.1 |
| 20260508143009 | 60 | 50 | 0.0 | 0.0 | 0.00 | 0.00 | 0.00 | 96 | 1012.4 |
| 20260508142506 | 60 | 60 | 0.0 | 0.0 | 0.00 | 0.00 | 0.00 | 96 | 1012.3 |
| 20260508142003 | 60 | 44 | 1.0 | 1.0 | 0.00 | 0.00 | 0.00 | 96 | 1012.6 |
| 20260508141459 | 60 | 48 | 1.0 | 1.0 | 0.00 | 0.00 | 0.00 | 96 | 1012.8 |
| 20260508140957 | 60 | 56 | 0.0 | 0.0 | 0.00 | 0.00 | 0.00 | 96 | 1012.4 |
| 20260508140454 | 60 | 26 | 1.0 | 1.0 | 0.00 | 0.00 | 0.00 | 96 | 1012.3 |
| 20260508135949 | 60 | 55 | 0.0 | 0.0 | 0.00 | 0.00 | 0.00 | 96 | 1012.1 |
| 20260508135446 | 60 | 82 | 0.0 | 1.0 | 0.00 | 0.00 | 0.00 | 96 | 1012.1 |
| 20260508134943 | 59 | 43 | 0.0 | 0.0 | 0.00 | 0.00 | 0.00 | 96 | 1012.1 |
| 20260508134439 | 60 | 70 | 0.0 | 0.0 | 0.00 | 0.00 | 0.00 | 96 | 1012.2 |
| 20260508133936 | 59 | 61 | 0.0 | 0.0 | 0.00 | 0.00 | 0.00 | 96 | 1012.2 |
| 20260508133434 | 59 | 39 | 0.0 | 0.0 | 0.00 | 0.00 | 0.00 | 96 | 1011.8 |
| 20260508132930 | 59 | 43 | 0.0 | 0.0 | 0.00 | 0.00 | 0.00 | 96 | 1011.9 |
| 20260508132428 | 59 | 48 | 0.0 | 0.0 | 0.00 | 0.00 | 0.00 | 96 | 1012.3 |
| 20260508131925 | 59 | 64 | 0.0 | 0.0 | 0.00 | 0.00 | 0.00 | 96 | 1012.3 |
| 20260508131420 | 59 | 43 | 0.0 | 0.0 | 0.00 | 0.00 | 0.00 | 96 | 1012.2 |
| 20260508130917 | 59 | 47 | 0.0 | 0.0 | 0.00 | 0.00 | 0.00 | 96 | 1012.2 |
| 20260508130414 | 59 | 59 | 0.0 | 0.0 | 0.00 | 0.00 | 0.00 | 96 | 1012.4 |
| 20260508125910 | 59 | 56 | 0.0 | 0.0 | 0.00 | 0.00 | 0.00 | 96 | 1012.3 |
| 20260508125406 | 59 | 34 | 1.0 | 1.0 | 0.00 | 0.00 | 0.00 | 96 | 1012.4 |
| 20260508124904 | 59 | 25 | 0.0 | 0.0 | 0.00 | 0.00 | 0.00 | 96 | 1012.5 |
| 20260508124401 | 59 | 41 | 0.0 | 0.0 | 0.00 | 0.00 | 0.00 | 96 | 1012.4 |
| 20260508123859 | 59 | 59 | 0.0 | 0.0 | 0.00 | 0.00 | 0.00 | 96 | 1012.4 |
| 20260508123357 | 59 | 61 | 0.0 | 0.0 | 0.00 | 0.00 | 0.00 | 96 | 1012.6 |
| 20260508122853 | 59 | 45 | 0.0 | 1.0 | 0.00 | 0.00 | 0.00 | 96 | 1012.3 |
| 20260508122350 | 59 | 66 | 1.0 | 2.0 | 0.00 | 0.00 | 0.00 | 96 | 1012.3 |
| 20260508121848 | 59 | 56 | 1.0 | 2.0 | 0.00 | 0.00 | 0.00 | 96 | 1012.5 |
| 20260508121346 | 59 | 42 | 1.0 | 1.0 | 0.00 | 0.00 | 0.00 | 96 | 1012.4 |
| 20260508120843 | 59 | 28 | 1.0 | 1.0 | 0.00 | 0.00 | 0.00 | 96 | 1012.6 |
| 20260508120341 | 59 | 47 | 0.0 | 0.0 | 0.00 | 0.00 | 0.00 | 95 | 1012.3 |
| 20260508115838 | 59 | 24 | 1.0 | 2.0 | 0.00 | 0.00 | 0.00 | 95 | 1012.0 |
| 20260508115336 | 59 | 27 | 2.0 | 3.0 | 0.00 | 0.00 | 0.00 | 95 | 1011.9 |
| 20260508114832 | 59 | 59 | 0.0 | 0.0 | 0.00 | 0.00 | 0.00 | 95 | 1011.9 |
| 20260508114329 | 59 | 60 | 0.0 | 0.0 | 0.00 | 0.00 | 0.00 | 94 | 1012.2 |
| 20260508113826 | 59 | 33 | 1.0 | 1.0 | 0.00 | 0.00 | 0.00 | 94 | 1012.3 |
| 20260508113324 | 60 | 37 | 2.0 | 3.0 | 0.00 | 0.00 | 0.00 | 93 | 1011.9 |
| 20260508112820 | 60 | 53 | 0.0 | 0.0 | 0.00 | 0.00 | 0.00 | 93 | 1012.6 |
| 20260508112318 | 60 | 42 | 0.0 | 1.0 | 0.00 | 0.00 | 0.00 | 92 | 1012.8 |
| 20260508111814 | 60 | 42 | 1.0 | 1.0 | 0.00 | 0.00 | 0.00 | 91 | 1012.8 |
| 20260508111311 | 60 | 45 | 0.0 | 1.0 | 0.00 | 0.00 | 0.00 | 90 | 1012.8 |
| 20260508110808 | 61 | 50 | 0.0 | 1.0 | 0.00 | 0.00 | 0.00 | 89 | 1013.1 |
| 20260508110306 | 61 | 56 | 0.0 | 0.0 | 0.00 | 0.00 | 0.00 | 88 | 1012.9 |
| 20260508105805 | 61 | 58 | 0.0 | 0.0 | 0.00 | 0.00 | 0.00 | 87 | 1013.0 |
| 20260508105305 | 61 | 59 | 0.0 | 0.0 | 0.00 | 0.00 | 0.00 | 87 | 1013.2 |
| 20260508104759 | 61 | 53 | 0.0 | 0.0 | 0.00 | 0.00 | 0.00 | 87 | 1013.2 |
| 20260508104256 | 61 | 40 | 0.0 | 0.0 | 0.00 | 0.00 | 0.00 | 86 | 1013.0 |
| 20260508103753 | 61 | 41 | 1.0 | 2.0 | 0.00 | 0.00 | 0.00 | 86 | 1013.0 |
| 20260508103250 | 61 | 48 | 0.0 | 0.0 | 0.00 | 0.00 | 0.00 | 86 | 1012.5 |
| 20260508102748 | 61 | 46 | 1.0 | 1.0 | 0.00 | 0.00 | 0.00 | 86 | 1012.3 |
| 20260508102246 | 61 | 41 | 2.0 | 2.0 | 0.00 | 0.00 | 0.00 | 85 | 1012.2 |
| 20260508101743 | 61 | 58 | 0.0 | 0.0 | 0.00 | 0.00 | 0.00 | 85 | 1012.2 |
| 20260508101240 | 61 | 43 | 0.0 | 0.0 | 0.00 | 0.00 | 0.00 | 85 | 1012.4 |
| 20260508100738 | 61 | 67 | 0.0 | 1.0 | 0.00 | 0.00 | 0.00 | 85 | 1012.2 |
| 20260508100235 | 61 | 46 | 0.0 | 0.0 | 0.00 | 0.00 | 0.00 | 85 | 1012.6 |
| 20260508095731 | 61 | 35 | 1.0 | 1.0 | 0.00 | 0.00 | 0.00 | 85 | 1011.8 |
| 20260508095229 | 61 | 65 | 0.0 | 1.0 | 0.00 | 0.00 | 0.00 | 85 | 1012.1 |
| 20260508094725 | 61 | 35 | 2.0 | 3.0 | 0.00 | 0.00 | 0.00 | 85 | 1012.2 |
| 20260508094222 | 61 | 34 | 0.0 | 1.0 | 0.00 | 0.00 | 0.00 | 85 | 1012.2 |
| 20260508093720 | 61 | 48 | 0.0 | 1.0 | 0.00 | 0.00 | 0.00 | 85 | 1012.0 |
| 20260508093218 | 61 | 74 | 0.0 | 0.0 | 0.00 | 0.00 | 0.00 | 85 | 1012.1 |
| 20260508092714 | 61 | 54 | 0.0 | 0.0 | 0.00 | 0.00 | 0.00 | 85 | 1012.1 |
| 20260508092212 | 61 | 40 | 0.0 | 1.0 | 0.00 | 0.00 | 0.00 | 85 | 1012.3 |
| 20260508091710 | 61 | 36 | 1.0 | 1.0 | 0.00 | 0.00 | 0.00 | 85 | 1012.4 |
| 20260508091207 | 61 | 60 | 0.0 | 0.0 | 0.00 | 0.00 | 0.00 | 85 | 1012.2 |
| 20260508090704 | 61 | 42 | 0.0 | 0.0 | 0.00 | 0.00 | 0.00 | 85 | 1012.3 |
| 20260508090202 | 61 | 53 | 0.0 | 0.0 | 0.00 | 0.00 | 0.00 | 86 | 1012.0 |
| 20260508085657 | 61 | 41 | 1.0 | 1.0 | 0.00 | 0.00 | 0.00 | 85 | 1012.8 |
| 20260508085155 | 61 | 28 | 1.0 | 1.0 | 0.00 | 0.00 | 0.00 | 86 | 1012.5 |
| 20260508084651 | 61 | 46 | 0.0 | 0.0 | 0.00 | 0.00 | 0.00 | 87 | 1012.3 |
| 20260508084149 | 61 | 37 | 0.0 | 1.0 | 0.00 | 0.00 | 0.00 | 87 | 1012.5 |
| 20260508083646 | 61 | 42 | 1.0 | 1.0 | 0.00 | 0.00 | 0.00 | 87 | 1012.4 |
| 20260508083144 | 61 | 62 | 0.0 | 0.0 | 0.00 | 0.00 | 0.00 | 87 | 1012.2 |
| 20260508082638 | 61 | 33 | 1.0 | 1.0 | 0.00 | 0.00 | 0.00 | 86 | 1012.5 |
| 20260508082136 | 61 | 53 | 0.0 | 0.0 | 0.00 | 0.00 | 0.00 | 86 | 1012.5 |
| 20260508081633 | 62 | 18 | 1.0 | 2.0 | 0.00 | 0.00 | 0.00 | 85 | 1012.9 |
| 20260508081129 | 62 | 42 | 0.0 | 0.0 | 0.00 | 0.00 | 0.00 | 84 | 1012.2 |
| 20260508080627 | 62 | 55 | 0.0 | 1.0 | 0.00 | 0.00 | 0.00 | 84 | 1012.4 |
| 20260508080125 | 62 | 59 | 0.0 | 0.0 | 0.00 | 0.00 | 0.00 | 83 | 1013.0 |
| 20260508075621 | 62 | 41 | 0.0 | 0.0 | 0.00 | 0.00 | 0.00 | 82 | 1012.9 |
| 20260508075118 | 62 | 44 | 0.0 | 1.0 | 0.00 | 0.00 | 0.00 | 82 | 1012.9 |
| 20260508074616 | 62 | 57 | 0.0 | 0.0 | 0.00 | 0.00 | 0.00 | 82 | 1012.9 |
| 20260508074113 | 62 | 49 | 0.0 | 0.0 | 0.00 | 0.00 | 0.00 | 82 | 1013.1 |
| 20260508073610 | 62 | 42 | 0.0 | 0.0 | 0.00 | 0.00 | 0.00 | 82 | 1013.1 |
| 20260508073108 | 62 | 54 | 0.0 | 0.0 | 0.00 | 0.00 | 0.00 | 82 | 1013.2 |
| 20260508072603 | 62 | 81 | 1.0 | 1.0 | 0.00 | 0.00 | 0.00 | 82 | 1013.2 |
| 20260508072100 | 62 | 43 | 0.0 | 0.0 | 0.00 | 0.00 | 0.00 | 82 | 1013.3 |
| 20260508071558 | 62 | 48 | 0.0 | 0.0 | 0.00 | 0.00 | 0.00 | 82 | 1013.4 |
| 20260508071056 | 62 | 48 | 0.0 | 0.0 | 0.00 | 0.00 | 0.00 | 81 | 1013.3 |
| 20260508070553 | 62 | 47 | 0.0 | 0.0 | 0.00 | 0.00 | 0.00 | 81 | 1013.5 |
| 20260508070052 | 62 | 31 | 1.0 | 1.0 | 0.00 | 0.00 | 0.00 | 81 | 1013.4 |
| 20260508065549 | 62 | 53 | 0.0 | 0.0 | 0.00 | 0.00 | 0.00 | 81 | 1013.2 |
| 20260508065047 | 62 | 41 | 1.0 | 1.0 | 0.00 | 0.00 | 0.00 | 80 | 1013.3 |
| 20260508064544 | 62 | 48 | 1.0 | 1.0 | 0.00 | 0.00 | 0.00 | 80 | 1013.2 |
| 20260508064042 | 62 | 55 | 1.0 | 1.0 | 0.00 | 0.00 | 0.00 | 81 | 1013.2 |
| 20260508063539 | 62 | 59 | 1.0 | 1.0 | 0.00 | 0.00 | 0.00 | 81 | 1012.8 |
| 20260508063037 | 62 | 22 | 2.0 | 2.0 | 0.00 | 0.00 | 0.00 | 81 | 1012.2 |
| 20260508062534 | 62 | 57 | 0.0 | 0.0 | 0.00 | 0.00 | 0.00 | 81 | 1012.3 |
| 20260508062031 | 62 | 29 | 1.0 | 1.0 | 0.00 | 0.00 | 0.00 | 81 | 1012.9 |
| 20260508061529 | 62 | 29 | 1.0 | 2.0 | 0.00 | 0.00 | 0.00 | 81 | 1013.3 |
| 20260508061025 | 62 | 68 | 0.0 | 0.0 | 0.00 | 0.00 | 0.00 | 81 | 1013.5 |
| 20260508060522 | 62 | 61 | 0.0 | 0.0 | 0.00 | 0.00 | 0.00 | 80 | 1013.5 |
| 20260508060020 | 62 | 49 | 0.0 | 0.0 | 0.00 | 0.00 | 0.00 | 81 | 1013.5 |
| 20260508055515 | 62 | 90 | 0.0 | 1.0 | 0.00 | 0.00 | 0.00 | 80 | 1013.3 |
| 20260508055012 | 62 | 66 | 0.0 | 0.0 | 0.00 | 0.00 | 0.00 | 79 | 1013.7 |
| 20260508054509 | 62 | 51 | 0.0 | 0.0 | 0.00 | 0.00 | 0.00 | 79 | 1013.7 |
| 20260508054006 | 62 | 49 | 0.0 | 0.0 | 0.00 | 0.00 | 0.00 | 79 | 1013.5 |
| 20260508053502 | 62 | 49 | 0.0 | 1.0 | 0.00 | 0.00 | 0.00 | 79 | 1013.7 |
| 20260508053001 | 62 | 58 | 0.0 | 0.0 | 0.00 | 0.00 | 0.00 | 79 | 1013.9 |
| 20260508052458 | 62 | 44 | 1.0 | 1.0 | 0.00 | 0.00 | 0.00 | 79 | 1013.4 |
| 20260508051954 | 62 | 73 | 1.0 | 1.0 | 0.00 | 0.00 | 0.00 | 79 | 1013.7 |
| 20260508051450 | 62 | 44 | 0.0 | 0.0 | 0.00 | 0.00 | 0.00 | 79 | 1013.8 |
| 20260508050946 | 62 | 54 | 1.0 | 1.0 | 0.00 | 0.00 | 0.00 | 79 | 1014.1 |
| 20260508050442 | 62 | 31 | 3.0 | 3.0 | 0.00 | 0.00 | 0.00 | 79 | 1014.0 |
| 20260508045939 | 62 | 0 | 3.0 | 5.0 | 0.00 | 0.03 | 0.03 | 80 | 1014.3 |
| 20260508045437 | 62 | 24 | 2.0 | 3.0 | 0.00 | 0.03 | 0.03 | 81 | 1013.9 |
| 20260508044934 | 62 | 59 | 0.0 | 0.0 | 0.00 | 0.03 | 0.03 | 80 | 1013.8 |
| 20260508044431 | 61 | 31 | 0.0 | 1.0 | 0.00 | 0.03 | 0.03 | 81 | 1013.5 |
| 20260508043926 | 61 | 48 | 0.0 | 0.0 | 0.00 | 0.03 | 0.03 | 81 | 1013.4 |
| 20260508043424 | 62 | 57 | 0.0 | 0.0 | 0.00 | 0.03 | 0.03 | 81 | 1012.6 |
| 20260508042920 | 62 | 105 | 1.0 | 1.0 | 0.00 | 0.03 | 0.03 | 80 | 1012.4 |
| 20260508042418 | 62 | 60 | 0.0 | 0.0 | 0.00 | 0.03 | 0.03 | 80 | 1012.4 |
| 20260508041915 | 62 | 62 | 0.0 | 0.0 | 0.00 | 0.03 | 0.03 | 80 | 1012.3 |
| 20260508041411 | 62 | 262 | 1.0 | 1.0 | 0.00 | 0.03 | 0.03 | 81 | 1012.4 |
| 20260508040908 | 62 | 73 | 0.0 | 0.0 | 0.00 | 0.03 | 0.03 | 80 | 1012.4 |
| 20260508040405 | 62 | 51 | 0.0 | 1.0 | 0.00 | 0.03 | 0.03 | 81 | 1012.4 |
| 20260508035903 | 62 | 82 | 0.0 | 1.0 | 0.00 | 0.03 | 0.03 | 81 | 1012.5 |
| 20260508035400 | 62 | 46 | 0.0 | 0.0 | 0.00 | 0.03 | 0.03 | 81 | 1013.2 |
| 20260508034856 | 62 | 65 | 0.0 | 0.0 | 0.00 | 0.03 | 0.03 | 81 | 1013.0 |
| 20260508034354 | 62 | 43 | 0.0 | 1.0 | 0.00 | 0.03 | 0.03 | 80 | 1013.4 |
| 20260508033850 | 63 | 61 | 0.0 | 0.0 | 0.00 | 0.03 | 0.03 | 80 | 1013.8 |
| 20260508033349 | 63 | 50 | 0.0 | 0.0 | 0.00 | 0.03 | 0.03 | 79 | 1013.9 |
| 20260508032846 | 63 | 51 | 0.0 | 0.0 | 0.00 | 0.03 | 0.03 | 80 | 1013.7 |
| 20260508032343 | 63 | 49 | 0.0 | 0.0 | 0.00 | 0.03 | 0.03 | 80 | 1013.8 |
| 20260508031839 | 63 | 47 | 0.0 | 0.0 | 0.00 | 0.03 | 0.03 | 79 | 1014.0 |
| 20260508031336 | 63 | 47 | 0.0 | 0.0 | 0.00 | 0.03 | 0.03 | 79 | 1014.1 |
| 20260508030833 | 63 | 66 | 0.0 | 0.0 | 0.00 | 0.03 | 0.03 | 79 | 1014.2 |
| 20260508030330 | 63 | 49 | 0.0 | 0.0 | 0.00 | 0.03 | 0.03 | 77 | 1014.1 |
| 20260508025827 | 63 | 42 | 2.0 | 2.0 | 0.00 | 0.03 | 0.03 | 78 | 1014.2 |
| 20260508025324 | 62 | 15 | 1.0 | 2.0 | 0.00 | 0.03 | 0.03 | 78 | 1014.3 |
| 20260508024821 | 62 | 28 | 1.0 | 1.0 | 0.00 | 0.03 | 0.03 | 78 | 1014.1 |
| 20260508024317 | 62 | 38 | 0.0 | 1.0 | 0.00 | 0.03 | 0.03 | 78 | 1014.1 |
| 20260508023814 | 62 | 44 | 0.0 | 0.0 | 0.00 | 0.03 | 0.03 | 78 | 1014.2 |
| 20260508023310 | 62 | 34 | 1.0 | 1.0 | 0.00 | 0.03 | 0.03 | 78 | 1013.9 |
| 20260508022807 | 63 | 48 | 0.0 | 1.0 | 0.00 | 0.03 | 0.03 | 77 | 1013.8 |
| 20260508022306 | 62 | 62 | 0.0 | 0.0 | 0.00 | 0.03 | 0.03 | 77 | 1013.3 |
| 20260508021801 | 62 | 66 | 0.0 | 1.0 | 0.00 | 0.03 | 0.03 | 77 | 1013.0 |
| 20260508021256 | 62 | 133 | 3.0 | 3.0 | 0.00 | 0.03 | 0.03 | 77 | 1012.2 |
| 20260508020752 | 63 | 134 | 3.0 | 3.0 | 0.00 | 0.03 | 0.03 | 78 | 1012.8 |
| 20260508020251 | 63 | 42 | 0.0 | 1.0 | 0.00 | 0.03 | 0.03 | 77 | 1013.0 |
| 20260508015747 | 63 | 93 | 2.0 | 2.0 | 0.00 | 0.03 | 0.03 | 76 | 1012.8 |
| 20260508015244 | 63 | 44 | 0.0 | 0.0 | 0.00 | 0.03 | 0.03 | 75 | 1012.8 |
| 20260508014741 | 63 | 75 | 1.0 | 2.0 | 0.00 | 0.03 | 0.03 | 75 | 1012.1 |
| 20260508014238 | 63 | 36 | 3.0 | 3.0 | 0.00 | 0.03 | 0.03 | 76 | 1011.6 |
| 20260508013734 | 63 | 62 | 1.0 | 1.0 | 0.00 | 0.03 | 0.03 | 75 | 1011.8 |
| 20260508013231 | 63 | 69 | 1.0 | 1.0 | 0.00 | 0.03 | 0.03 | 76 | 1012.0 |
| 20260508012728 | 64 | 58 | 1.0 | 1.0 | 0.00 | 0.03 | 0.03 | 75 | 1012.1 |
| 20260508012224 | 64 | 28 | 1.0 | 2.0 | 0.00 | 0.03 | 0.03 | 74 | 1012.2 |
| 20260508011723 | 64 | 105 | 0.0 | 1.0 | 0.00 | 0.03 | 0.03 | 73 | 1012.0 |
| 20260508011220 | 64 | 14 | 1.0 | 1.0 | 0.00 | 0.03 | 0.03 | 73 | 1012.5 |
| 20260508010716 | 64 | 41 | 1.0 | 1.0 | 0.00 | 0.03 | 0.03 | 73 | 1012.3 |
| 20260508010215 | 64 | 6 | 3.0 | 5.0 | 0.00 | 0.03 | 0.03 | 72 | 1012.3 |
| 20260508005712 | 64 | 44 | 2.0 | 2.0 | 0.00 | 0.03 | 0.03 | 71 | 1011.6 |
| 20260508005208 | 64 | 164 | 4.0 | 6.0 | 0.00 | 0.03 | 0.03 | 72 | 1010.7 |
| 20260508004704 | 64 | 139 | 4.0 | 7.0 | 0.00 | 0.03 | 0.03 | 72 | 1010.1 |
| 20260508004200 | 65 | 146 | 5.0 | 6.0 | 0.00 | 0.03 | 0.03 | 72 | 1010.3 |
| 20260508003657 | 65 | 183 | 3.0 | 5.0 | 0.00 | 0.03 | 0.03 | 72 | 1010.9 |
| 20260508003155 | 65 | 160 | 3.0 | 5.0 | 0.00 | 0.03 | 0.03 | 72 | 1011.1 |
| 20260508002651 | 65 | 58 | 2.0 | 3.0 | 0.00 | 0.03 | 0.03 | 72 | 1011.7 |
| 20260508002149 | 66 | 73 | 0.0 | 0.0 | 0.00 | 0.03 | 0.03 | 71 | 1011.9 |
| 20260508001644 | 66 | 87 | 1.0 | 2.0 | 0.00 | 0.03 | 0.03 | 71 | 1012.0 |
| 20260508001140 | 66 | 113 | 1.0 | 1.0 | 0.00 | 0.03 | 0.03 | 69 | 1012.6 |
| 20260508000636 | 66 | 39 | 0.0 | 1.0 | 0.00 | 0.03 | 0.03 | 69 | 1012.8 |
| 20260508000133 | 66 | 115 | 1.0 | 1.0 | 0.00 | 0.03 | 0.03 | 69 | 1012.9 |
| 20260507235630 | 67 | 89 | 1.0 | 2.0 | 0.00 | 0.03 | 0.03 | 69 | 1013.3 |
| 20260507235128 | 67 | 54 | 2.0 | 3.0 | 0.00 | 0.03 | 0.03 | 66 | 1013.5 |
| 20260507234624 | 68 | 57 | 0.0 | 0.0 | 0.00 | 0.03 | 0.03 | 67 | 1013.3 |
| 20260507234120 | 68 | 47 | 0.0 | 0.0 | 0.00 | 0.03 | 0.03 | 65 | 1013.3 |